FW1177 Weather Reports


Display with metric or nautical units.
time (UTC)temp
F
wind
direction
speed
MPH
gust
MPH
rain 1hr
in
rain 24hr
in
rain mn
in
humidity
%
barometer
mb
20260509223731 80 157 0.0 0.0 0.00 0.16 0.09 75 1036.0
20260509222829 80 164 0.0 1.0 0.00 0.16 0.09 75 1035.9
20260509221829 80 157 0.0 2.0 0.00 0.16 0.09 74 1035.9
20260509220829 80 180 0.0 1.0 0.00 0.16 0.09 76 1035.9
20260509215831 80 202 0.0 0.0 0.00 0.16 0.09 76 1035.8
20260509214830 80 244 0.0 2.0 0.00 0.16 0.09 77 1035.9
20260509214731 80 247 0.0 0.0 0.00 0.16 0.09 77 1035.9
20260509213828 79 180 0.0 1.0 0.00 0.16 0.09 77 1036.0
20260509212829 78 180 0.0 0.0 0.00 0.16 0.09 77 1036.4
20260509212747 78 180 0.0 0.0 0.00 0.16 0.09 77 1036.3
20260509205730 78 202 0.0 0.0 0.01 0.16 0.09 81 1036.6
20260509204730 78 360 0.0 0.0 0.01 0.16 0.09 81 1036.6
20260509203829 78 135 0.0 0.0 0.01 0.16 0.09 80 1036.7
20260509202831 78 135 0.0 0.0 0.01 0.16 0.09 79 1036.9
20260509201929 78 180 0.0 0.0 0.01 0.16 0.09 80 1037.0
20260509200945 78 61 0.0 3.0 0.01 0.16 0.09 80 1037.0
20260509193930 77 81 1.0 3.0 0.00 0.15 0.08 86 1037.5
20260509191930 75 157 0.0 0.0 0.00 0.15 0.08 87 1037.7
20260509191029 75 315 0.0 0.0 0.00 0.15 0.08 88 1038.0
20260509190030 75 315 0.0 0.0 0.00 0.15 0.08 86 1038.2
20260509185930 75 315 0.0 0.0 0.00 0.15 0.08 87 1038.1
20260509185029 75 341 0.0 1.0 0.00 0.15 0.08 86 1038.0
20260509182030 75 135 0.0 0.0 0.00 0.15 0.08 88 1038.2
20260509181129 75 90 0.0 0.0 0.00 0.15 0.08 88 1038.2
20260509181029 74 90 0.0 0.0 0.00 0.15 0.08 88 1038.1
20260509180045 74 47 2.0 2.0 0.00 0.15 0.08 89 1038.2
20260509175129 74 112 0.0 0.0 0.00 0.15 0.08 90 1038.4
20260509172130 74 112 0.0 0.0 0.00 0.15 0.08 90 1038.4
20260509171129 74 112 0.0 0.0 0.00 0.15 0.08 89 1038.5
20260509170228 74 112 0.0 0.0 0.00 0.15 0.08 90 1038.5
20260509170129 74 112 0.0 0.0 0.00 0.15 0.08 91 1038.5
20260509170031 74 112 0.0 0.0 0.00 0.15 0.08 91 1038.4
20260509165030 74 360 0.0 0.0 0.00 0.15 0.08 91 1038.4
20260509164029 73 342 1.0 1.0 0.00 0.15 0.08 90 1038.4
20260509163128 73 112 0.0 0.0 0.00 0.15 0.08 91 1038.4
20260509163031 73 112 0.0 0.0 0.00 0.15 0.08 90 1038.4
20260509162048 73 71 0.0 3.0 0.00 0.15 0.08 93 1038.3
20260509160029 72 22 0.0 0.0 0.00 0.15 0.08 92 1038.2
20260509155048 72 22 1.0 2.0 0.00 0.15 0.08 94 1038.2
20260509154030 72 292 0.0 0.0 0.00 0.15 0.08 94 1038.2
20260509153031 71 360 0.0 1.0 0.00 0.15 0.08 95 1038.2
20260509152031 71 135 0.0 1.0 0.00 0.15 0.08 94 1038.2
20260509151046 70 135 1.0 2.0 0.00 0.15 0.08 96 1038.2
20260509150930 70 135 0.0 0.0 0.00 0.15 0.08 96 1038.2
20260509145929 70 135 0.0 0.0 0.00 0.15 0.08 95 1038.4
20260509144931 70 135 0.0 1.0 0.00 0.15 0.08 95 1038.5
20260509144829 70 135 0.0 0.0 0.00 0.15 0.08 96 1038.5
20260509142829 69 90 0.0 0.0 0.00 0.15 0.08 96 1038.6
20260509141749 69 90 0.0 0.0 0.00 0.15 0.08 97 1038.5
20260509135847 69 180 0.0 0.0 0.00 0.15 0.08 97 1038.7
20260509135746 69 180 0.0 0.0 0.00 0.15 0.08 97 1038.7
20260509134829 68 180 0.0 0.0 0.00 0.15 0.08 97 1038.8
20260509133848 68 180 0.0 0.0 0.00 0.15 0.08 98 1038.8
20260509131931 67 180 0.0 0.0 0.00 0.15 0.08 98 1038.4
20260509130930 67 180 0.0 0.0 0.00 0.15 0.08 98 1038.4
20260509130847 67 180 0.0 0.0 0.00 0.15 0.08 98 1038.4
20260509130748 67 180 0.0 0.0 0.00 0.15 0.08 97 1038.3
20260509125829 66 180 0.0 0.0 0.00 0.15 0.08 98 1038.2
20260509125730 66 180 0.0 0.0 0.00 0.15 0.08 98 1038.2
20260509123829 66 180 0.0 0.0 0.00 0.15 0.08 97 1038.2
20260509122847 65 180 0.0 0.0 0.00 0.15 0.08 97 1038.5
20260509121830 65 180 0.0 0.0 0.00 0.15 0.08 97 1038.5
20260509121747 65 180 0.0 0.0 0.00 0.15 0.08 98 1038.5
20260509120629 65 180 0.0 0.0 0.00 0.15 0.08 98 1038.5
20260509114630 65 180 0.0 0.0 0.00 0.15 0.08 98 1038.2
20260509113630 65 251 0.0 0.0 0.00 0.15 0.08 97 1038.0
20260509113529 65 270 0.0 0.0 0.00 0.15 0.08 98 1038.0
20260509112628 65 270 0.0 0.0 0.00 0.15 0.08 98 1037.7
20260509112529 65 270 0.0 0.0 0.00 0.15 0.08 98 1037.6
20260509111531 65 270 0.0 0.0 0.00 0.15 0.08 98 1037.4
20260509105630 65 45 0.0 0.0 0.00 0.16 0.08 98 1037.3
20260509104729 64 45 0.0 0.0 0.00 0.19 0.08 98 1037.3
20260509102728 65 45 0.0 0.0 0.04 0.19 0.08 98 1037.2
20260509101731 65 45 0.0 0.0 0.04 0.19 0.08 98 1037.3
20260509100647 65 45 0.0 0.0 0.04 0.19 0.08 98 1037.1
20260509095728 65 45 0.0 0.0 0.04 0.19 0.08 98 1037.1
20260509094730 65 45 0.0 0.0 0.04 0.19 0.08 98 1037.1
20260509093729 65 45 0.0 1.0 0.04 0.19 0.08 98 1037.6
20260509092729 65 45 0.0 0.0 0.00 0.15 0.04 97 1037.6
20260509091828 65 45 0.0 0.0 0.00 0.15 0.04 98 1037.6
20260509090847 65 45 0.0 0.0 0.00 0.15 0.04 98 1037.7
20260509085928 65 45 0.0 0.0 0.00 0.15 0.04 98 1037.5
20260509085829 65 45 0.0 0.0 0.00 0.15 0.04 97 1037.3
20260509083946 64 45 0.0 0.0 0.00 0.15 0.04 97 1037.6
20260509083029 65 45 0.0 0.0 0.00 0.15 0.04 97 1037.3
20260509082931 65 45 0.0 0.0 0.00 0.15 0.04 97 1037.4
20260509082028 64 45 0.0 0.0 0.00 0.15 0.04 96 1037.3
20260509081031 64 45 0.0 0.0 0.00 0.15 0.04 97 1037.5
20260509074047 65 45 0.0 0.0 0.01 0.15 0.04 97 1037.5
20260509073031 65 45 1.0 2.0 0.01 0.15 0.04 97 1037.2
20260509072128 65 45 0.0 0.0 0.01 0.15 0.04 97 1037.0
20260509072044 65 45 0.0 0.0 0.01 0.15 0.04 97 1036.9
20260509071130 66 45 0.0 0.0 0.01 0.15 0.04 97 1036.6
20260509065247 65 39 2.0 3.0 0.02 0.15 0.04 97 1036.6
20260509065130 65 7 2.0 3.0 0.02 0.15 0.04 97 1036.8
20260509064129 65 240 1.0 2.0 0.02 0.14 0.03 97 1036.8
20260509062131 65 292 2.0 3.0 0.03 0.14 0.03 96 1038.0
20260509061130 65 202 0.0 0.0 0.03 0.14 0.03 96 1038.5
20260509060130 65 135 1.0 2.0 0.02 0.13 0.02 95 1039.3
20260509055228 65 135 0.0 0.0 0.03 0.13 0.02 94 1039.4
20260509054228 65 22 0.0 0.0 0.02 0.12 0.01 95 1039.6
20260509054146 65 22 0.0 0.0 0.02 0.12 0.01 95 1039.6
20260509053131 65 315 0.0 0.0 0.02 0.11 0.00 94 1040.1
20260509053031 65 315 0.0 0.0 0.02 0.11 0.00 94 1040.0
20260509052029 65 22 0.0 0.0 0.02 0.11 0.00 93 1039.4
20260509051928 65 22 0.0 0.0 0.02 0.11 0.00 94 1039.5
20260509050930 65 22 0.0 1.0 0.07 0.11 0.00 94 1039.8
20260509050829 65 22 0.0 1.0 0.07 0.11 0.00 94 1039.8
20260509050731 65 20 2.0 5.0 0.07 0.11 0.00 94 1039.7
20260509045743 65 315 1.0 1.0 0.07 0.11 0.11 92 1039.1
20260509044745 65 273 2.0 3.0 0.06 0.10 0.10 91 1038.0
20260509043746 66 270 0.0 1.0 0.06 0.10 0.09 88 1038.5
20260509042843 66 40 1.0 2.0 0.05 0.09 0.09 85 1038.5
20260509042744 67 22 0.0 0.0 0.05 0.09 0.09 84 1038.7
20260509041744 69 2 1.0 2.0 0.05 0.09 0.09 77 1038.2
20260509041701 69 89 0.0 0.0 0.05 0.09 0.08 76 1038.3
20260509035700 69 202 2.0 3.0 0.00 0.04 0.04 74 1037.1
20260509033745 68 180 1.0 2.0 0.00 0.04 0.04 77 1038.0
20260509032759 68 180 0.0 1.0 0.00 0.04 0.04 78 1038.4
20260509031844 67 180 0.0 0.0 0.00 0.04 0.04 78 1038.5
20260509031744 67 180 0.0 0.0 0.00 0.04 0.04 78 1038.4
20260509030800 67 180 0.0 0.0 0.00 0.04 0.04 76 1038.1
20260509030646 67 180 0.0 0.0 0.00 0.04 0.04 77 1038.1
20260509025742 68 180 0.0 0.0 0.00 0.04 0.04 76 1037.9
20260509025659 68 180 0.0 0.0 0.00 0.04 0.04 76 1037.9
20260509024744 68 180 0.0 0.0 0.00 0.04 0.04 76 1037.7
20260509024643 68 180 0.0 0.0 0.00 0.04 0.04 77 1037.7
20260509023643 68 180 0.0 0.0 0.00 0.04 0.04 76 1037.5
20260509022644 67 180 0.0 0.0 0.00 0.04 0.04 75 1037.3
20260509021645 68 180 0.0 0.0 0.00 0.04 0.04 75 1037.2
20260509020644 68 180 0.0 0.0 0.00 0.04 0.04 74 1037.0
20260509015644 68 180 0.0 0.0 0.00 0.04 0.04 74 1037.0
20260509014644 68 180 0.0 0.0 0.00 0.04 0.04 71 1036.8
20260509013742 69 180 0.0 0.0 0.00 0.04 0.04 69 1036.6
20260509013700 69 180 0.0 0.0 0.00 0.04 0.04 69 1036.6
20260509011659 71 180 0.0 0.0 0.00 0.04 0.04 64 1036.4
20260509010744 72 180 0.0 0.0 0.00 0.04 0.04 64 1036.3
20260509005744 73 180 0.0 0.0 0.00 0.04 0.04 62 1036.4
20260509004644 73 180 0.0 0.0 0.00 0.04 0.04 61 1036.4
20260509003643 74 180 0.0 0.0 0.00 0.04 0.04 60 1036.2
20260509002742 74 180 0.0 0.0 0.00 0.04 0.04 59 1036.1
20260509001801 75 180 0.0 2.0 0.00 0.04 0.04 56 1036.1
20260509000858 75 180 0.0 2.0 0.00 0.04 0.04 57 1036.0
20260508235945 75 89 1.0 2.0 0.00 0.04 0.04 57 1035.7
20260508234945 75 270 0.0 1.0 0.00 0.04 0.04 57 1036.1
20260508234844 75 270 0.0 1.0 0.00 0.04 0.04 57 1035.9
20260508234759 75 304 1.0 3.0 0.00 0.04 0.04 57 1035.8
20260508233846 75 225 0.0 0.0 0.00 0.04 0.04 57 1036.1
20260508231001 76 135 0.0 0.0 0.00 0.04 0.04 55 1037.1
20260508230043 76 135 0.0 1.0 0.00 0.04 0.04 55 1037.1
20260508225945 76 135 2.0 4.0 0.00 0.04 0.04 54 1037.1
20260508225044 77 157 0.0 1.0 0.00 0.04 0.04 54 1037.3
20260508224945 77 157 0.0 1.0 0.00 0.04 0.04 54 1037.3
20260508224843 77 157 0.0 1.0 0.00 0.04 0.04 54 1037.3